<?xml version="1.0" encoding="UTF-8" standalone="no" ?>
<gpx xmlns="http://www.topografix.com/GPX/1/1" xmlns:xsi="http://www.w3.org/2001/XMLSchema-instance" xsi:schemaLocation="http://www.topografix.com/GPX/1/1 http://www.topografix.com/GPX/1/1/gpx.xsd" version="1.1" creator="VisuGPX - https://www.visugpx.com">
  <metadata>
    <name>J3 Aix StLaurent la Prée</name>
    <desc><![CDATA[gnerando idor:81764008_13786731_20053845]]></desc>
  </metadata>
  <trk>
    <name><![CDATA[17 St Laurent de la Prée Marais 12km-13786731]]></name>
    <extensions>
      <line xmlns="http://www.topografix.com/GPX/gpx_style/0/2">
        <color>0000FF</color>
        <width>4</width>
      </line>
    </extensions>
    <trkseg>
      <trkpt lat="45.97995" lon="-1.04053">
        <ele>5</ele>
        <time>2025-01-08T12:08:47.700Z</time>
      </trkpt>
      <trkpt lat="45.97969" lon="-1.03996">
        <ele>4</ele>
        <time>2025-01-08T12:08:54.633Z</time>
      </trkpt>
      <trkpt lat="45.97942" lon="-1.03901">
        <ele>3</ele>
        <time>2025-01-08T12:09:05.716Z</time>
      </trkpt>
      <trkpt lat="45.98005" lon="-1.03805">
        <ele>3</ele>
        <time>2025-01-08T12:09:21.910Z</time>
      </trkpt>
      <trkpt lat="45.9802" lon="-1.03768">
        <ele>3</ele>
        <time>2025-01-08T12:09:27.163Z</time>
      </trkpt>
      <trkpt lat="45.98033" lon="-1.03653">
        <ele>3</ele>
        <time>2025-01-08T12:09:41.452Z</time>
      </trkpt>
      <trkpt lat="45.98044" lon="-1.03597">
        <ele>3</ele>
        <time>2025-01-08T12:09:48.589Z</time>
      </trkpt>
      <trkpt lat="45.98149" lon="-1.03374">
        <ele>4</ele>
        <time>2025-01-08T12:10:23.377Z</time>
      </trkpt>
      <trkpt lat="45.98237" lon="-1.03184">
        <ele>3</ele>
        <time>2025-01-08T12:10:49.782Z</time>
      </trkpt>
      <trkpt lat="45.98293" lon="-1.03075">
        <ele>4</ele>
        <time>2025-01-08T12:11:08.237Z</time>
      </trkpt>
      <trkpt lat="45.98182" lon="-1.03004">
        <ele>1</ele>
        <time>2025-01-08T12:11:25.499Z</time>
      </trkpt>
      <trkpt lat="45.97791" lon="-1.03249">
        <ele>2</ele>
        <time>2025-01-08T12:12:42.472Z</time>
      </trkpt>
      <trkpt lat="45.97484" lon="-1.03448">
        <ele>1</ele>
        <time>2025-01-08T12:13:40.258Z</time>
      </trkpt>
      <trkpt lat="45.97162" lon="-1.03192">
        <ele>3</ele>
        <time>2025-01-08T12:14:48.691Z</time>
      </trkpt>
      <trkpt lat="45.96709" lon="-1.02829">
        <ele>1</ele>
        <time>2025-01-08T12:16:16.947Z</time>
      </trkpt>
      <trkpt lat="45.96438" lon="-1.02617">
        <ele>1</ele>
        <time>2025-01-08T12:17:11.387Z</time>
      </trkpt>
      <trkpt lat="45.96318" lon="-1.03179">
        <ele>3</ele>
        <time>2025-01-08T12:18:27.003Z</time>
      </trkpt>
      <trkpt lat="45.96265" lon="-1.03391">
        <ele>2</ele>
        <time>2025-01-08T12:18:53.046Z</time>
      </trkpt>
      <trkpt lat="45.96288" lon="-1.03588">
        <ele>1</ele>
        <time>2025-01-08T12:19:15.967Z</time>
      </trkpt>
      <trkpt lat="45.96267" lon="-1.03713">
        <ele>2</ele>
        <time>2025-01-08T12:19:33.583Z</time>
      </trkpt>
      <trkpt lat="45.96225" lon="-1.03807">
        <ele>1</ele>
        <time>2025-01-08T12:19:45.773Z</time>
      </trkpt>
      <trkpt lat="45.96168" lon="-1.04035">
        <ele>4</ele>
        <time>2025-01-08T12:20:21.340Z</time>
      </trkpt>
      <trkpt lat="45.96119" lon="-1.04377">
        <ele>1</ele>
        <time>2025-01-08T12:20:59.607Z</time>
      </trkpt>
      <trkpt lat="45.96136" lon="-1.04438">
        <ele>2</ele>
        <time>2025-01-08T12:21:09.688Z</time>
      </trkpt>
      <trkpt lat="45.96109" lon="-1.04526">
        <ele>3</ele>
        <time>2025-01-08T12:21:23.389Z</time>
      </trkpt>
      <trkpt lat="45.96043" lon="-1.04511">
        <ele>2</ele>
        <time>2025-01-08T12:21:33.686Z</time>
      </trkpt>
      <trkpt lat="45.95765" lon="-1.05412">
        <ele>3</ele>
        <time>2025-01-08T12:23:36.324Z</time>
      </trkpt>
      <trkpt lat="45.95659" lon="-1.05955">
        <ele>2</ele>
        <time>2025-01-08T12:24:43.878Z</time>
      </trkpt>
      <trkpt lat="45.95647" lon="-1.06131">
        <ele>1</ele>
        <time>2025-01-08T12:25:04.001Z</time>
      </trkpt>
      <trkpt lat="45.95619" lon="-1.06256">
        <ele>3</ele>
        <time>2025-01-08T12:25:24.151Z</time>
      </trkpt>
      <trkpt lat="45.95624" lon="-1.06307">
        <ele>3</ele>
        <time>2025-01-08T12:25:30.471Z</time>
      </trkpt>
      <trkpt lat="45.95607" lon="-1.06496">
        <ele>1</ele>
        <time>2025-01-08T12:25:50.867Z</time>
      </trkpt>
      <trkpt lat="45.95605" lon="-1.06659">
        <ele>2</ele>
        <time>2025-01-08T12:26:12.673Z</time>
      </trkpt>
      <trkpt lat="45.95698" lon="-1.0697">
        <ele>2</ele>
        <time>2025-01-08T12:26:54.210Z</time>
      </trkpt>
      <trkpt lat="45.95722" lon="-1.06961">
        <ele>2</ele>
        <time>2025-01-08T12:26:58.587Z</time>
      </trkpt>
      <trkpt lat="45.95724" lon="-1.06986">
        <ele>2</ele>
        <time>2025-01-08T12:27:01.675Z</time>
      </trkpt>
      <trkpt lat="45.95758" lon="-1.07076">
        <ele>2</ele>
        <time>2025-01-08T12:27:14.242Z</time>
      </trkpt>
      <trkpt lat="45.95829" lon="-1.07303">
        <ele>3.1</ele>
        <time>2025-01-08T12:27:46.725Z</time>
      </trkpt>
      <trkpt lat="45.95888" lon="-1.07479">
        <ele>2</ele>
        <time>2025-01-08T12:28:08.966Z</time>
      </trkpt>
      <trkpt lat="45.95919" lon="-1.07452">
        <ele>1</ele>
        <time>2025-01-08T12:28:13.998Z</time>
      </trkpt>
      <trkpt lat="45.95926" lon="-1.07463">
        <ele>1</ele>
        <time>2025-01-08T12:28:15.827Z</time>
      </trkpt>
      <trkpt lat="45.95939" lon="-1.07465">
        <ele>1</ele>
        <time>2025-01-08T12:28:18.135Z</time>
      </trkpt>
      <trkpt lat="45.9605" lon="-1.07727">
        <ele>1</ele>
        <time>2025-01-08T12:28:55.777Z</time>
      </trkpt>
      <trkpt lat="45.96073" lon="-1.07756">
        <ele>1</ele>
        <time>2025-01-08T12:29:01.175Z</time>
      </trkpt>
      <trkpt lat="45.96114" lon="-1.07715">
        <ele>2</ele>
        <time>2025-01-08T12:29:11.973Z</time>
      </trkpt>
      <trkpt lat="45.9613" lon="-1.07701">
        <ele>2</ele>
        <time>2025-01-08T12:29:15.278Z</time>
      </trkpt>
      <trkpt lat="45.96154" lon="-1.07696">
        <ele>2</ele>
        <time>2025-01-08T12:29:19.558Z</time>
      </trkpt>
      <trkpt lat="45.96222" lon="-1.07666">
        <ele>1</ele>
        <time>2025-01-08T12:29:30.606Z</time>
      </trkpt>
      <trkpt lat="45.96448" lon="-1.07555">
        <ele>1</ele>
        <time>2025-01-08T12:30:12.751Z</time>
      </trkpt>
      <trkpt lat="45.96458" lon="-1.0754">
        <ele>1</ele>
        <time>2025-01-08T12:30:15.301Z</time>
      </trkpt>
      <trkpt lat="45.96455" lon="-1.07518">
        <ele>1</ele>
        <time>2025-01-08T12:30:18.051Z</time>
      </trkpt>
      <trkpt lat="45.96445" lon="-1.07488">
        <ele>1</ele>
        <time>2025-01-08T12:30:22.133Z</time>
      </trkpt>
      <trkpt lat="45.96449" lon="-1.07471">
        <ele>2</ele>
        <time>2025-01-08T12:30:27.879Z</time>
      </trkpt>
      <trkpt lat="45.9646" lon="-1.07468">
        <ele>2</ele>
        <time>2025-01-08T12:30:29.855Z</time>
      </trkpt>
      <trkpt lat="45.9648" lon="-1.07469">
        <ele>1</ele>
        <time>2025-01-08T12:30:32.213Z</time>
      </trkpt>
      <trkpt lat="45.96493" lon="-1.07454">
        <ele>2</ele>
        <time>2025-01-08T12:30:38.056Z</time>
      </trkpt>
      <trkpt lat="45.96616" lon="-1.07288">
        <ele>2.9</ele>
        <time>2025-01-08T12:31:09.398Z</time>
      </trkpt>
      <trkpt lat="45.96711" lon="-1.07155">
        <ele>2</ele>
        <time>2025-01-08T12:31:31.360Z</time>
      </trkpt>
      <trkpt lat="45.96806" lon="-1.07028">
        <ele>2</ele>
        <time>2025-01-08T12:31:54.247Z</time>
      </trkpt>
      <trkpt lat="45.96838" lon="-1.06993">
        <ele>2</ele>
        <time>2025-01-08T12:32:01.341Z</time>
      </trkpt>
      <trkpt lat="45.96861" lon="-1.0698">
        <ele>2</ele>
        <time>2025-01-08T12:32:05.702Z</time>
      </trkpt>
      <trkpt lat="45.96816" lon="-1.06864">
        <ele>3</ele>
        <time>2025-01-08T12:32:23.832Z</time>
      </trkpt>
      <trkpt lat="45.96794" lon="-1.06815">
        <ele>3</ele>
        <time>2025-01-08T12:32:30.987Z</time>
      </trkpt>
      <trkpt lat="45.96762" lon="-1.06761">
        <ele>2</ele>
        <time>2025-01-08T12:32:38.255Z</time>
      </trkpt>
      <trkpt lat="45.96747" lon="-1.06723">
        <ele>2</ele>
        <time>2025-01-08T12:32:43.616Z</time>
      </trkpt>
      <trkpt lat="45.96741" lon="-1.06659">
        <ele>2</ele>
        <time>2025-01-08T12:32:51.537Z</time>
      </trkpt>
      <trkpt lat="45.96739" lon="-1.06558">
        <ele>2</ele>
        <time>2025-01-08T12:33:03.932Z</time>
      </trkpt>
      <trkpt lat="45.96664" lon="-1.06511">
        <ele>2</ele>
        <time>2025-01-08T12:33:18.370Z</time>
      </trkpt>
      <trkpt lat="45.96602" lon="-1.06435">
        <ele>2</ele>
        <time>2025-01-08T12:33:32.745Z</time>
      </trkpt>
      <trkpt lat="45.96573" lon="-1.0635">
        <ele>1</ele>
        <time>2025-01-08T12:33:42.868Z</time>
      </trkpt>
      <trkpt lat="45.96558" lon="-1.06286">
        <ele>1</ele>
        <time>2025-01-08T12:33:51.153Z</time>
      </trkpt>
      <trkpt lat="45.96552" lon="-1.06046">
        <ele>3</ele>
        <time>2025-01-08T12:34:24.318Z</time>
      </trkpt>
      <trkpt lat="45.96501" lon="-1.05698">
        <ele>3</ele>
        <time>2025-01-08T12:35:07.947Z</time>
      </trkpt>
      <trkpt lat="45.96482" lon="-1.05567">
        <ele>2</ele>
        <time>2025-01-08T12:35:22.821Z</time>
      </trkpt>
      <trkpt lat="45.9648" lon="-1.05464">
        <ele>2</ele>
        <time>2025-01-08T12:35:35.461Z</time>
      </trkpt>
      <trkpt lat="45.96432" lon="-1.05394">
        <ele>2</ele>
        <time>2025-01-08T12:35:47.523Z</time>
      </trkpt>
      <trkpt lat="45.96385" lon="-1.05301">
        <ele>2</ele>
        <time>2025-01-08T12:36:01.629Z</time>
      </trkpt>
      <trkpt lat="45.96413" lon="-1.05171">
        <ele>3</ele>
        <time>2025-01-08T12:36:20.155Z</time>
      </trkpt>
      <trkpt lat="45.96423" lon="-1.05101">
        <ele>3</ele>
        <time>2025-01-08T12:36:28.922Z</time>
      </trkpt>
      <trkpt lat="45.96443" lon="-1.05048">
        <ele>2</ele>
        <time>2025-01-08T12:36:34.919Z</time>
      </trkpt>
      <trkpt lat="45.96485" lon="-1.05014">
        <ele>2</ele>
        <time>2025-01-08T12:36:43.425Z</time>
      </trkpt>
      <trkpt lat="45.96532" lon="-1.05001">
        <ele>2</ele>
        <time>2025-01-08T12:36:51.871Z</time>
      </trkpt>
      <trkpt lat="45.9651" lon="-1.0494">
        <ele>2</ele>
        <time>2025-01-08T12:37:00.302Z</time>
      </trkpt>
      <trkpt lat="45.96649" lon="-1.04886">
        <ele>2</ele>
        <time>2025-01-08T12:37:25.712Z</time>
      </trkpt>
      <trkpt lat="45.96665" lon="-1.0487">
        <ele>2</ele>
        <time>2025-01-08T12:37:29.151Z</time>
      </trkpt>
      <trkpt lat="45.96708" lon="-1.04809">
        <ele>3</ele>
        <time>2025-01-08T12:37:41.735Z</time>
      </trkpt>
      <trkpt lat="45.96754" lon="-1.04736">
        <ele>2</ele>
        <time>2025-01-08T12:37:52.323Z</time>
      </trkpt>
      <trkpt lat="45.96809" lon="-1.04687">
        <ele>2</ele>
        <time>2025-01-08T12:38:03.740Z</time>
      </trkpt>
      <trkpt lat="45.96877" lon="-1.0465">
        <ele>2</ele>
        <time>2025-01-08T12:38:16.570Z</time>
      </trkpt>
      <trkpt lat="45.96929" lon="-1.04661">
        <ele>3</ele>
        <time>2025-01-08T12:38:27.814Z</time>
      </trkpt>
      <trkpt lat="45.96948" lon="-1.04688">
        <ele>5</ele>
        <time>2025-01-08T12:38:39.262Z</time>
      </trkpt>
      <trkpt lat="45.97001" lon="-1.0465">
        <ele>4</ele>
        <time>2025-01-08T12:38:48.239Z</time>
      </trkpt>
      <trkpt lat="45.97085" lon="-1.0459">
        <ele>2</ele>
        <time>2025-01-08T12:39:01.938Z</time>
      </trkpt>
      <trkpt lat="45.97144" lon="-1.04524">
        <ele>1</ele>
        <time>2025-01-08T12:39:13.615Z</time>
      </trkpt>
      <trkpt lat="45.97241" lon="-1.04463">
        <ele>1</ele>
        <time>2025-01-08T12:39:32.297Z</time>
      </trkpt>
      <trkpt lat="45.97299" lon="-1.04455">
        <ele>2</ele>
        <time>2025-01-08T12:39:44.517Z</time>
      </trkpt>
      <trkpt lat="45.97352" lon="-1.04412">
        <ele>2</ele>
        <time>2025-01-08T12:39:55.255Z</time>
      </trkpt>
      <trkpt lat="45.97485" lon="-1.04373">
        <ele>1</ele>
        <time>2025-01-08T12:40:17.626Z</time>
      </trkpt>
      <trkpt lat="45.97569" lon="-1.04357">
        <ele>1</ele>
        <time>2025-01-08T12:40:32.580Z</time>
      </trkpt>
      <trkpt lat="45.97651" lon="-1.04309">
        <ele>2</ele>
        <time>2025-01-08T12:40:50.045Z</time>
      </trkpt>
      <trkpt lat="45.97804" lon="-1.04114">
        <ele>2</ele>
        <time>2025-01-08T12:41:26.116Z</time>
      </trkpt>
      <trkpt lat="45.97941" lon="-1.03902">
        <ele>3</ele>
        <time>2025-01-08T12:42:03.368Z</time>
      </trkpt>
      <trkpt lat="45.97979" lon="-1.0401">
        <ele>4</ele>
        <time>2025-01-08T12:42:20.065Z</time>
      </trkpt>
      <trkpt lat="45.97995" lon="-1.04043">
        <ele>4</ele>
        <time>2025-01-08T12:42:25.000Z</time>
        <extensions>
          <visugpx:TrkExtension xmlns:visugpx="https://www.visugpx.com/editgpx/">
            <visugpx:node>1</visugpx:node>
            </visugpx:TrkExtension>
        </extensions>
      </trkpt>
    </trkseg>
  </trk>
</gpx>